Location: ?????????
(54.7630°N, 39.4991°E)
Time: 08:04:08
(UTC+00:00)

NOSS 2-1 (E) - Pass Details

Date: 14 April 2026
Orbit: 385 x 1749 km, 63.3° (Epoch: 7 May)

Event Time Altitude Azimuth Distance (km) Brightness Sun altitude
Rises 17:09:53 0° 309° (NW) 2,281 8.6 -7.0°
Reaches altitude 10° 17:11:57 10° 321° (NW) 1,440 6.7 -7.2°
Maximum altitude 17:14:45 31° 26° (NNE) 766 4.1 -7.6°
Drops below altitude 10° 17:17:56 10° 92° (E) 1,639 5.2 -8.0°
Enters shadow 17:18:16 - 94° (E) 1,772 5.4 -8.0°
